User: anonymous   Login
Location: Unspecified
(0.0000°N, 0.0000°E)
Time: 10:50:19
(UTC+00:00)
Language:

UHF F/O F2 - Orbit

View from above orbital plane
View from above orbital plane
View from above satellite
View from above satellite

Ground track
Ground track

The orbit data is extracted from the following two-line orbital elements,

1 22787U 93056A   18282.92199943 0.00000000  00000-0  00000-0 0    09
2 22787  11.0329  19.4263 0003000 153.6001 206.1904  1.00270000    00
Epoch (UTC): 09 October 2018 22:07:40
Eccentricity: 0.0003000
inclination: 11.0329°
perigee height: 35774 km
apogee height: 35799 km
right ascension of ascending node: 19.4263°
argument of perigee: 153.6001°
revolutions per day: 1.00270000
mean anomaly at epoch: 206.1904°
orbit number at epoch: 0

The dashed part of the orbit path shows where the satellite is in the earth's shadow,  

DLR